Flag Weather past 2 weeks in Wellington, New Zealand

Now
59 °F

Refreshingly cool.


Feels Like: 55 °F
Forecast: 51 / 60 °F
Wind: 20 mph from Northwest

Location: Wellington Airport

Current Time: Nov 28, 2014 at 10:06:41 AM

Latest Report: Nov 28, 2014 at 9:30 AM


Visibility: N/A

Pressure: 29.62 "Hg

Humidity: 51%

Dew point: 41 °F

Location of WellingtonLocation

Historic Weather in Wellington — Graph

°F

Wellington temperature yesterday

Maximum temperature yesterday: 64 °F (at 12:30 PM)
Minimum temperature yesterday: 57 °F (at 2:30 AM)
Average temperature yesterday: 61 °F

Past Weeks' High & Low Weather Summary

 TemperatureHumidityPressure
High75 °F (Nov 26, 11:00 AM)100% (Nov 17, 8:00 PM)30.09 "Hg (Nov 17, 8:00 PM)
Low45 °F (Nov 20, 6:30 AM)24% (Nov 26, 11:00 AM)29.24 "Hg (Nov 15, 5:00 PM)
Average59 °F69%29.68 "Hg
* Reported Nov 13 9:00 AM — Nov 28 9:00 AM, Wellington, Weather by CustomWeather, © 2014

Note: Actual official high and low records may vary slightly from our data, if they occured in-between our weather recording intervals... More about our weather records

Advertising

Wellington weather history for previous 24 hours

 ConditionsComfort  
Time TempWeatherWind HumidityBarometerVisibility
9:00 AM
Nov 28
59 °FRefreshingly cool.20 mph51%29.62 "HgN/A
8:30 AM59 °FRefreshingly cool.14 mph51%29.62 "HgN/A
8:00 AM59 °FRefreshingly cool.16 mph51%29.62 "HgN/A
7:30 AM57 °FRefreshingly cool.14 mph59%29.62 "HgN/A
7:00 AM57 °FRefreshingly cool.13 mph59%29.62 "HgN/A
6:30 AM55 °FRefreshingly cool.8 mph59%29.65 "HgN/A
6:00 AM55 °FCool.12 mph63%29.62 "HgN/A
5:30 AM57 °FRefreshingly cool.12 mph59%29.62 "HgN/A
5:00 AM57 °FRefreshingly cool.13 mph59%29.62 "HgN/A
4:30 AM57 °FRefreshingly cool.14 mph59%29.62 "HgN/A
4:00 AM57 °FRefreshingly cool.16 mph59%29.59 "HgN/A
3:30 AM57 °FCool.14 mph63%29.59 "HgN/A
3:00 AM57 °FCool.14 mph67%29.59 "HgN/A
2:30 AM57 °FCool.12 mph72%29.62 "HgN/A
2:00 AM57 °FCool.14 mph72%29.62 "HgN/A
1:30 AM57 °FPassing clouds.16 mph77%29.62 "HgN/A
1:00 AM57 °FPassing clouds.18 mph77%29.62 "HgN/A
12:30 AM59 °FCool.20 mph68%29.62 "HgN/A
12:00 AM59 °FCool.18 mph68%29.62 "HgN/A
11:30 PM
Nov 27
59 °FCool.21 mph63%29.62 "HgN/A
11:00 PM59 °FCool.25 mph63%29.62 "HgN/A
10:30 PM59 °FCool.24 mph68%29.62 "HgN/A
10:00 PM59 °FCool.26 mph72%29.62 "HgN/A
9:30 PM59 °FCool.28 mph72%29.59 "HgN/A
9:00 PM59 °FCool.22 mph72%29.59 "HgN/A
8:30 PM61 °FCool.17 mph68%29.62 "HgN/A
8:00 PM61 °FCool.22 mph63%29.59 "HgN/A
7:30 PM63 °FMild.21 mph64%29.59 "HgN/A
7:00 PM61 °FPassing clouds.23 mph72%29.59 "HgN/A
6:30 PM63 °FScattered clouds.25 mph73%29.59 "HgN/A
6:00 PM63 °FMild.26 mph68%29.59 "HgN/A
5:30 PM63 °FMild.24 mph68%29.59 "HgN/A
5:00 PM64 °FMild.29 mph68%29.59 "HgN/A
4:30 PM64 °FMild.31 mph68%29.59 "HgN/A
3:30 PM64 °FPassing clouds.35 mph68%29.59 "HgN/A
3:00 PM64 °FScattered clouds.31 mph68%29.62 "HgN/A
2:30 PM64 °FPartly sunny.28 mph68%29.65 "HgN/A
2:00 PM64 °FScattered clouds.26 mph64%29.65 "HgN/A
1:30 PM64 °FPartly sunny.26 mph64%29.65 "HgN/A
1:00 PM64 °FPartly sunny.26 mph64%29.68 "HgN/A
12:30 PM64 °FOvercast.26 mph68%29.68 "HgN/A
12:00 PM63 °FPartly sunny.23 mph68%29.68 "HgN/A
11:30 AM63 °FPartly sunny.24 mph68%29.71 "HgN/A
11:00 AM63 °FScattered clouds.29 mph64%29.68 "HgN/A
10:30 AM63 °FPartly sunny.25 mph68%29.68 "HgN/A
10:00 AM61 °FPartly sunny.24 mph72%29.71 "HgN/A
Weather by CustomWeather, © 2014

See weather overviewHow to use our weather pages